GLOBALSTAR M072

Last updated on Sun Jun 21 2026 00:03:18 GMT+0000 (Coordinated Universal Time)

1 31574U 07020D 26171.26260443 -.00000098 00000+0 -18974-3 0 9993 2 31574 51.9932 92.0574 0001444 340.1824 183.7882 11.91658300875341
UTC large
Height (km)
Speed (km/s)
/
Latitude / Longitude
Inclination (degrees)
Orbital Period (minutes)
Azimuth
Elevation
Range (km)
Doppler Factor

Next 0 passes for location: London (51.5072 / 0.1276)

No passes found over London.
GLOBALSTAR M072